| time (UTC) | temp C | wind direction | speed KPH | gust KPH | rain 1hr cm | rain 24hr cm | rain mn cm | humidity % | barometer mb |
| 20260505073003 | 6 | 256 | 6.4 | 14.5 | 0.00 | 0.25 | 0.00 | 77 | 1000.6 |
| 20260505071503 | 6 | 220 | 4.8 | 16.1 | 0.00 | 0.25 | 0.00 | 79 | 1000.3 |
| 20260505070006 | 7 | 232 | 1.6 | 16.1 | 0.00 | 0.25 | 0.00 | 79 | 1000.0 |
| 20260505064509 | 7 | 266 | 3.2 | 11.3 | 0.00 | 0.25 | 0.00 | 81 | 999.8 |
| 20260505063003 | 6 | 219 | 1.6 | 11.3 | 0.00 | 0.25 | 0.00 | 84 | 999.5 |
| 20260505061503 | 6 | 265 | 1.6 | 12.9 | 0.00 | 0.25 | 0.00 | 85 | 999.4 |
| 20260505060021 | 6 | 287 | 1.6 | 14.5 | 0.00 | 0.25 | 0.00 | 86 | 999.1 |
| 20260505054504 | 6 | 287 | 4.8 | 17.7 | 0.00 | 0.25 | 0.00 | 86 | 999.0 |
| 20260505053003 | 7 | 233 | 3.2 | 12.9 | 0.00 | 0.25 | 0.00 | 83 | 998.6 |
| 20260505051503 | 7 | 238 | 4.8 | 14.5 | 0.00 | 0.25 | 0.00 | 83 | 998.3 |
| 20260505041503 | 5 | 237 | 1.6 | 6.4 | 0.00 | 0.25 | 0.00 | 95 | 997.7 |
| 20260505040006 | 5 | 190 | 1.6 | 8.0 | 0.00 | 0.25 | 0.00 | 96 | 997.7 |
| 20260505034503 | 4 | 174 | 1.6 | 11.3 | 0.00 | 0.25 | 0.00 | 97 | 997.6 |
| 20260505033010 | 4 | 169 | 3.2 | 9.7 | 0.00 | 0.25 | 0.00 | 98 | 997.7 |
| 20260505031503 | 3 | 219 | 3.2 | 9.7 | 0.00 | 0.25 | 0.00 | 98 | 997.8 |
| 20260505030006 | 3 | 167 | 4.8 | 8.0 | 0.00 | 0.25 | 0.00 | 98 | 997.8 |
| 20260505024504 | 4 | 152 | 3.2 | 8.0 | 0.00 | 0.25 | 0.00 | 98 | 997.9 |
| 20260505023003 | 4 | 166 | 1.6 | 8.0 | 0.00 | 0.25 | 0.00 | 98 | 998.0 |
| 20260505021503 | 4 | 197 | 4.8 | 9.7 | 0.00 | 0.25 | 0.00 | 98 | 998.0 |
| 20260505020005 | 5 | 135 | 6.4 | 12.9 | 0.00 | 0.25 | 0.00 | 98 | 998.1 |
| 20260505014508 | 5 | 127 | 4.8 | 16.1 | 0.00 | 0.25 | 0.00 | 98 | 998.4 |
| 20260505013003 | 5 | 178 | 6.4 | 12.9 | 0.00 | 0.25 | 0.00 | 98 | 998.6 |
| 20260505011504 | 5 | 177 | 6.4 | 14.5 | 0.00 | 0.25 | 0.00 | 98 | 998.8 |
| 20260505010005 | 5 | 159 | 3.2 | 16.1 | 0.00 | 0.25 | 0.00 | 98 | 999.0 |
| 20260505004511 | 5 | 186 | 4.8 | 11.3 | 0.00 | 0.25 | 0.00 | 98 | 999.0 |
| 20260505003003 | 5 | 182 | 3.2 | 12.9 | 0.00 | 0.25 | 0.00 | 97 | 999.1 |
| 20260505001503 | 5 | 230 | 6.4 | 14.5 | 0.00 | 0.25 | 0.00 | 97 | 999.1 |
| 20260505000009 | 5 | 146 | 6.4 | 12.9 | 0.00 | 0.25 | 0.00 | 97 | 999.2 |
| 20260504234503 | 5 | 129 | 3.2 | 9.7 | 0.00 | 0.25 | 0.00 | 97 | 999.4 |
| 20260504233003 | 5 | 143 | 3.2 | 11.3 | 0.00 | 0.25 | 0.00 | 97 | 999.6 |
| 20260504231511 | 5 | 197 | 3.2 | 12.9 | 0.00 | 0.25 | 0.00 | 97 | 999.8 |
| 20260504230005 | 5 | 221 | 1.6 | 12.9 | 0.00 | 0.25 | 0.00 | 97 | 999.9 |
| 20260504224503 | 5 | 184 | 3.2 | 14.5 | 0.00 | 0.25 | 0.00 | 97 | 999.9 |
| 20260504223003 | 6 | 205 | 3.2 | 11.3 | 0.00 | 0.25 | 0.00 | 97 | 1000.0 |
| 20260504221504 | 6 | 180 | 1.6 | 11.3 | 0.00 | 0.25 | 0.00 | 97 | 1000.0 |
| 20260504220004 | 6 | 153 | 3.2 | 8.0 | 0.00 | 0.25 | 0.00 | 97 | 1000.0 |
| 20260504214501 | 6 | 157 | 3.2 | 9.7 | 0.00 | 0.25 | 0.00 | 97 | 1000.0 |
| 20260504213005 | 6 | 202 | 3.2 | 8.0 | 0.00 | 0.25 | 0.00 | 96 | 999.9 |
| 20260504211502 | 6 | 161 | 3.2 | 6.4 | 0.00 | 0.25 | 0.00 | 96 | 999.9 |
| 20260504210010 | 6 | 234 | 0.0 | 6.4 | 0.00 | 0.25 | 0.00 | 96 | 999.9 |
| 20260504204501 | 6 | 175 | 1.6 | 9.7 | 0.08 | 0.25 | 0.25 | 96 | 999.7 |
| 20260504203002 | 6 | 213 | 1.6 | 12.9 | 0.08 | 0.25 | 0.25 | 96 | 1000.0 |
| 20260504201502 | 6 | 220 | 1.6 | 8.0 | 0.08 | 0.25 | 0.25 | 95 | 1000.0 |
| 20260504200009 | 6 | 184 | 3.2 | 9.7 | 0.08 | 0.25 | 0.25 | 95 | 1000.0 |
| 20260504194505 | 6 | 184 | 4.8 | 12.9 | 0.00 | 0.18 | 0.18 | 94 | 1000.1 |
| 20260504193005 | 6 | 182 | 4.8 | 12.9 | 0.00 | 0.18 | 0.18 | 93 | 999.9 |
| 20260504191502 | 6 | 238 | 4.8 | 12.9 | 0.00 | 0.18 | 0.18 | 93 | 1000.0 |
| 20260504190008 | 6 | 237 | 6.4 | 12.9 | 0.00 | 0.18 | 0.18 | 92 | 1000.3 |
| 20260504184502 | 6 | 207 | 4.8 | 11.3 | 0.00 | 0.18 | 0.18 | 92 | 1000.1 |
| 20260504183002 | 6 | 194 | 3.2 | 9.7 | 0.00 | 0.18 | 0.18 | 91 | 1000.1 |
| 20260504181503 | 6 | 202 | 4.8 | 12.9 | 0.00 | 0.18 | 0.18 | 91 | 1000.1 |
| 20260504180004 | 6 | 205 | 6.4 | 12.9 | 0.00 | 0.18 | 0.18 | 90 | 1000.1 |
| 20260504174502 | 7 | 217 | 4.8 | 12.9 | 0.00 | 0.18 | 0.18 | 89 | 999.9 |
| 20260504173002 | 7 | 154 | 4.8 | 12.9 | 0.00 | 0.18 | 0.18 | 88 | 999.8 |
| 20260504171505 | 7 | 204 | 3.2 | 11.3 | 0.00 | 0.18 | 0.18 | 88 | 999.9 |
| 20260504081502 | 5 | 158 | 3.2 | 8.0 | 0.15 | 0.15 | 0.15 | 86 | 1002.4 |